• In Spain
  • List of Countries
  • For 7 days
  • Water Temperature
  • Satellite Maps
  • Weather Map
  • Weather Widgets
  • user-avatar
    Login

    Hourly Weather Tibissa

    Today, 23 June, Saturday

    Time Temperature Precipitation Wind Pressure Humidity
    00:00 +24°C° 0 mm 2 mps 687 mmHg 46%
    01:00 +23°C° 0 mm 2 mps 687 mmHg 49%
    02:00 +23°C° 0 mm 2 mps 687 mmHg 50%
    03:00 +22°C° 0 mm 1 mps 687 mmHg 51%
    04:00 +22°C° 0 mm 1 mps 687 mmHg 53%
    05:00 +22°C° 0 mm 1 mps 687 mmHg 51%
    06:00 +23°C° 0 mm 1 mps 687 mmHg 49%
    07:00 +23°C° 0 mm 1 mps 687 mmHg 46%
    08:00 +24°C° 0 mm 1 mps 688 mmHg 42%
    09:00 +26°C° 0 mm 1 mps 688 mmHg 39%
    10:00 +27°C° 0 mm 1 mps 688 mmHg 35%
    11:00 +28°C° 0 mm 2 mps 688 mmHg 32%
    12:00 +30°C° 0 mm 2 mps 688 mmHg 30%
    13:00 +31°C° 0 mm 3 mps 688 mmHg 27%
    14:00 +31°C° 0 mm 3 mps 688 mmHg 27%
    15:00 +32°C° 0 mm 4 mps 688 mmHg 26%
    16:00 +33°C° 0 mm 4 mps 687 mmHg 26%
    17:00 +32°C° 0 mm 4 mps 687 mmHg 28%
    18:00 +30°C° 0 mm 4 mps 687 mmHg 30%
    19:00 +30°C° 0 mm 4 mps 687 mmHg 32%
    20:00 +28°C° 0 mm 4 mps 687 mmHg 35%
    21:00 +27°C° 0 mm 4 mps 687 mmHg 38%
    22:00 +26°C° 0 mm 3 mps 687 mmHg 41%
    23:00 +25°C° 0 mm 3 mps 687 mmHg 43%

    Tomorrow, 24 June, Sunday

    Time Temperature Precipitation Wind Pressure Humidity
    00:00 +25°C° 0 mm 3 mps 687 mmHg 45%
    01:00 +24°C° 0 mm 2 mps 687 mmHg 47%
    02:00 +23°C° 0 mm 2 mps 687 mmHg 50%
    03:00 +23°C° 0 mm 1 mps 687 mmHg 52%
    04:00 +22°C° 0 mm 1 mps 686 mmHg 54%
    05:00 +23°C° 0 mm 1 mps 686 mmHg 51%
    06:00 +23°C° 0 mm 1 mps 687 mmHg 48%
    07:00 +24°C° 0 mm 1 mps 687 mmHg 46%
    08:00 +25°C° 0 mm 1 mps 687 mmHg 42%
    09:00 +26°C° 0 mm 1 mps 687 mmHg 38%
    10:00 +28°C° 0 mm 1 mps 687 mmHg 34%
    11:00 +29°C° 0 mm 2 mps 687 mmHg 30%
    12:00 +30°C° 0 mm 3 mps 688 mmHg 27%
    13:00 +33°C° 0 mm 4 mps 688 mmHg 23%
    14:00 +33°C° 0 mm 5 mps 687 mmHg 22%
    15:00 +34°C° 0 mm 6 mps 687 mmHg 21%
    16:00 +34°C° 0 mm 7 mps 687 mmHg 21%
    17:00 +33°C° 0 mm 7 mps 687 mmHg 23%
    18:00 +32°C° 0 mm 7 mps 686 mmHg 25%
    19:00 +32°C° 0 mm 6 mps 686 mmHg 27%
    20:00 +29°C° 0 mm 5 mps 686 mmHg 31%
    21:00 +28°C° 0 mm 4 mps 686 mmHg 35%
    22:00 +27°C° 0 mm 3 mps 686 mmHg 39%
    23:00 +26°C° 0 mm 2 mps 686 mmHg 42%

    Day after tomorrow, 25 June, Monday

    Time Temperature Precipitation Wind Pressure Humidity
    00:00 +25°C° 0 mm 2 mps 686 mmHg 45%
    01:00 +25°C° 0 mm 1 mps 686 mmHg 48%
    02:00 +24°C° 0 mm 1 mps 685 mmHg 49%
    03:00 +24°C° 0 mm 1 mps 685 mmHg 50%
    04:00 +24°C° 0 mm 2 mps 684 mmHg 51%
    05:00 +24°C° 0 mm 2 mps 685 mmHg 49%
    06:00 +24°C° 0 mm 3 mps 685 mmHg 46%
    07:00 +23°C° 0 mm 4 mps 685 mmHg 44%
    08:00 +25°C° 0 mm 5 mps 685 mmHg 38%
    09:00 +26°C° 0 mm 6 mps 686 mmHg 32%
    10:00 +27°C° 0 mm 7 mps 686 mmHg 26%
    11:00 +28°C° 0 mm 7 mps 686 mmHg 24%
    12:00 +29°C° 0 mm 7 mps 686 mmHg 21%
    13:00 +30°C° 0 mm 7 mps 686 mmHg 18%
    14:00 +30°C° 0 mm 7 mps 686 mmHg 18%
    15:00 +32°C° 0 mm 8 mps 686 mmHg 19%
    16:00 +32°C° 0 mm 8 mps 686 mmHg 19%
    17:00 +29°C° 0 mm 8 mps 686 mmHg 22%
    18:00 +28°C° 0 mm 8 mps 686 mmHg 25%
    19:00 +27°C° 0 mm 8 mps 686 mmHg 28%
    20:00 +26°C° 0 mm 7 mps 686 mmHg 31%
    21:00 +23°C° 0 mm 6 mps 686 mmHg 35%
    22:00 +22°C° 0 mm 5 mps 687 mmHg 39%
    23:00 +22°C° 0 mm 4 mps 686 mmHg 40%

    26 June, Tuesday

    Time Temperature Precipitation Wind Pressure Humidity
    00:00 +21°C° 0 mm 4 mps 686 mmHg 42%
    01:00 +20°C° 0 mm 3 mps 686 mmHg 43%
    02:00 +20°C° 0 mm 3 mps 686 mmHg 45%
    03:00 +19°C° 0 mm 3 mps 685 mmHg 47%
    04:00 +19°C° 0 mm 2 mps 685 mmHg 48%
    05:00 +19°C° 0 mm 3 mps 685 mmHg 47%
    06:00 +20°C° 0 mm 3 mps 685 mmHg 45%
    07:00 +20°C° 0 mm 3 mps 685 mmHg 43%
    08:00 +21°C° 0 mm 4 mps 686 mmHg 39%
    09:00 +23°C° 0 mm 5 mps 686 mmHg 35%
    10:00 +24°C° 0 mm 6 mps 686 mmHg 31%
    11:00 +26°C° 0 mm 6 mps 686 mmHg 29%
    12:00 +27°C° 0 mm 6 mps 686 mmHg 28%
    13:00 +28°C° 0 mm 6 mps 686 mmHg 26%
    14:00 +28°C° 0 mm 6 mps 686 mmHg 25%
    15:00 +29°C° 0 mm 6 mps 686 mmHg 25%
    16:00 +29°C° 0 mm 7 mps 686 mmHg 25%
    17:00 +28°C° 0 mm 6 mps 686 mmHg 28%
    18:00 +27°C° 0 mm 6 mps 686 mmHg 31%
    19:00 +26°C° 0 mm 6 mps 686 mmHg 34%
    20:00 +24°C° 0 mm 6 mps 686 mmHg 39%
    21:00 +23°C° 0 mm 5 mps 686 mmHg 43%
    22:00 +22°C° 0 mm 5 mps 686 mmHg 48%
    23:00 +21°C° 0 mm 4 mps 686 mmHg 51%

    27 June, Wednesday

    Time Temperature Precipitation Wind Pressure Humidity
    00:00 +21°C° 0 mm 3 mps 686 mmHg 53%
    01:00 +20°C° 0 mm 2 mps 686 mmHg 56%
    02:00 +20°C° 0 mm 2 mps 686 mmHg 58%
    03:00 +19°C° 0 mm 2 mps 685 mmHg 60%
    04:00 +19°C° 0 mm 1 mps 685 mmHg 62%
    05:00 +20°C° 0 mm 1 mps 685 mmHg 60%
    06:00 +20°C° 0 mm 1 mps 686 mmHg 57%
    07:00 +20°C° 0 mm 1 mps 686 mmHg 55%
    08:00 +21°C° 0 mm 1 mps 686 mmHg 48%
    09:00 +22°C° 0 mm 1 mps 686 mmHg 41%
    10:00 +24°C° 0 mm 2 mps 687 mmHg 34%
    11:00 +25°C° 0 mm 2 mps 687 mmHg 31%
    12:00 +27°C° 0 mm 3 mps 687 mmHg 27%
    13:00 +28°C° 0 mm 4 mps 687 mmHg 24%
    14:00 +29°C° 0 mm 4 mps 686 mmHg 23%
    15:00 +29°C° 0 mm 5 mps 686 mmHg 22%
    16:00 +30°C° 0 mm 6 mps 686 mmHg 21%
    17:00 +29°C° 0 mm 6 mps 686 mmHg 23%
    18:00 +28°C° 0 mm 6 mps 686 mmHg 25%
    19:00 +28°C° 0 mm 6 mps 686 mmHg 27%
    20:00 +27°C° 0 mm 6 mps 686 mmHg 30%
    21:00 +25°C° 0 mm 5 mps 687 mmHg 33%
    22:00 +23°C° 0 mm 4 mps 687 mmHg 36%
    23:00 +22°C° 0 mm 3 mps 687 mmHg 39%

    28 June, Thursday

    Time Temperature Precipitation Wind Pressure Humidity
    00:00 +23°C° 0 mm 2 mps 686 mmHg 42%
    01:00 +22°C° 0 mm 1 mps 686 mmHg 44%
    02:00 +22°C° 0 mm 1 mps 686 mmHg 47%
    03:00 +21°C° 0 mm 1 mps 686 mmHg 49%
    04:00 +21°C° 0 mm 1 mps 685 mmHg 51%
    05:00 +21°C° 0 mm 1 mps 686 mmHg 50%
    06:00 +21°C° 0 mm 1 mps 686 mmHg 49%
    07:00 +22°C° 0 mm 1 mps 686 mmHg 48%
    08:00 +23°C° 0 mm 1 mps 686 mmHg 43%
    09:00 +25°C° 0 mm 1 mps 686 mmHg 39%
    10:00 +26°C° 0 mm 1 mps 687 mmHg 34%
    11:00 +28°C° 0 mm 2 mps 687 mmHg 31%
    12:00 +29°C° 0 mm 2 mps 687 mmHg 27%
    13:00 +31°C° 0 mm 3 mps 687 mmHg 24%
    14:00 +33°C° 0 mm 3 mps 686 mmHg 23%
    15:00 +33°C° 0 mm 4 mps 686 mmHg 21%
    16:00 +34°C° 0 mm 4 mps 686 mmHg 20%
    17:00 +34°C° 0 mm 4 mps 686 mmHg 20%
    18:00 +33°C° 0 mm 4 mps 686 mmHg 20%
    19:00 +33°C° 0 mm 4 mps 686 mmHg 21%
    20:00 +32°C° 0 mm 4 mps 686 mmHg 23%
    21:00 +30°C° 0 mm 4 mps 686 mmHg 26%
    22:00 +29°C° 0 mm 3 mps 686 mmHg 29%
    23:00 +28°C° 0 mm 3 mps 686 mmHg 31%
    Show more